FW9025 Weather Reports


time (UTC)temp
C
wind
direction
speed
KPH
gust
KPH
rain 1hr
cm
rain 24hr
cm
rain mn
cm
humidity
%
barometer
mb
20260505041603 9 0 1.6 8.0 0.00 0.00 0.00 50 1012.1
20260505041051 9 303 1.6 14.5 0.00 0.00 0.00 50 1012.0
20260505040551 9 54 3.2 14.5 0.00 0.00 0.00 48 1011.9
20260505040103 9 26 1.6 14.5 0.00 0.00 0.00 48 1011.9
20260505035557 9 33 3.2 16.1 0.00 0.00 0.00 47 1011.8
20260505035052 10 332 1.6 16.1 0.00 0.00 0.00 47 1011.7
20260505034610 10 28 1.6 9.7 0.00 0.00 0.00 47 1011.7
20260505034052 10 2 3.2 8.0 0.00 0.00 0.00 46 1011.7
20260505033554 10 0 0.0 9.7 0.00 0.00 0.00 46 1011.7
20260505033055 10 5 0.0 9.7 0.00 0.00 0.00 45 1011.7
20260505032554 10 0 1.6 9.7 0.00 0.00 0.00 45 1011.6
20260505032053 10 278 1.6 6.4 0.00 0.00 0.00 44 1011.5
20260505031552 10 313 1.6 8.0 0.00 0.00 0.00 44 1011.5
20260505031054 10 0 1.6 8.0 0.00 0.00 0.00 43 1011.4
20260505030556 10 315 1.6 8.0 0.00 0.00 0.00 43 1011.2
20260505030114 10 317 1.6 8.0 0.00 0.00 0.00 43 1011.2
20260505025554 10 36 1.6 8.0 0.00 0.00 0.00 43 1011.1
20260505025053 10 299 0.0 9.7 0.00 0.00 0.00 43 1011.0
20260505024609 10 103 1.6 9.7 0.00 0.00 0.00 43 1010.8
20260505024054 10 14 1.6 9.7 0.00 0.00 0.00 42 1010.8
20260505023552 10 105 1.6 9.7 0.00 0.00 0.00 42 1010.8
20260505023054 11 0 1.6 9.7 0.00 0.00 0.00 41 1010.7
20260505022552 11 30 3.2 9.7 0.00 0.00 0.00 41 1010.7
20260505022051 11 71 3.2 9.7 0.00 0.00 0.00 40 1010.6
20260505021553 11 11 3.2 12.9 0.00 0.00 0.00 40 1010.5
20260505021053 11 23 3.2 14.5 0.00 0.00 0.00 39 1010.5
20260505020554 11 27 1.6 14.5 0.00 0.00 0.00 40 1010.3
20260505020105 11 0 3.2 14.5 0.00 0.00 0.00 41 1010.4
20260505015554 11 106 3.2 12.9 0.00 0.00 0.00 43 1010.3
20260505015057 11 0 1.6 8.0 0.00 0.00 0.00 42 1010.2
20260505014553 12 18 0.0 8.0 0.00 0.00 0.00 43 1010.1
20260505014054 12 330 1.6 6.4 0.00 0.00 0.00 42 1010.1
20260505013554 12 0 0.0 6.4 0.00 0.00 0.00 42 1010.1
20260505013053 12 65 0.0 8.0 0.00 0.00 0.00 41 1010.0
20260505012556 12 0 1.6 14.5 0.00 0.00 0.00 42 1010.0
20260505012055 12 18 3.2 14.5 0.00 0.00 0.00 41 1010.1
20260505011559 12 308 1.6 8.0 0.00 0.00 0.00 41 1010.1
20260505011053 13 118 1.6 9.7 0.00 0.00 0.00 40 1010.1
20260505010553 13 298 1.6 9.7 0.00 0.00 0.00 38 1010.0
20260505010109 13 7 3.2 8.0 0.00 0.00 0.00 40 1010.0
20260505005555 13 28 0.0 3.2 0.00 0.00 0.00 45 1010.1
20260505005052 13 353 0.0 1.6 0.00 0.00 0.00 44 1010.0
20260505004605 13 0 0.0 4.8 0.00 0.00 0.00 43 1009.9
20260505004054 13 0 0.0 4.8 0.00 0.00 0.00 42 1010.0
20260505003555 13 0 0.0 3.2 0.00 0.00 0.00 42 1010.0
20260505003058 13 0 0.0 6.4 0.00 0.00 0.00 40 1010.1
20260505002555 13 131 3.2 6.4 0.00 0.00 0.00 39 1010.0
20260505002054 13 103 0.0 4.8 0.00 0.00 0.00 41 1010.1
20260505001553 14 66 1.6 4.8 0.00 0.00 0.00 41 1010.1
20260505001053 14 31 0.0 4.8 0.00 0.00 0.00 41 1010.0
20260505000551 14 353 1.6 8.0 0.00 0.00 0.00 40 1010.0
20260505000107 14 288 1.6 8.0 0.00 0.00 0.00 40 1009.9
20260504235554 14 0 0.0 11.3 0.00 0.00 0.00 40 1010.0
20260504235054 14 234 1.6 11.3 0.00 0.00 0.00 41 1010.1
20260504234553 13 353 1.6 11.3 0.00 0.00 0.00 40 1010.2
20260504234054 13 54 3.2 17.7 0.00 0.00 0.00 41 1010.3
20260504233552 14 279 1.6 17.7 0.00 0.00 0.00 39 1010.5
20260504233103 15 138 3.2 11.3 0.00 0.00 0.00 37 1010.5
20260504232555 15 122 3.2 11.3 0.00 0.00 0.00 36 1010.3
20260504232054 16 296 1.6 9.7 0.00 0.00 0.00 33 1010.4
20260504231620 16 0 1.6 4.8 0.00 0.00 0.00 35 1010.1
20260504231054 16 288 1.6 4.8 0.00 0.00 0.00 33 1010.0
20260504230555 16 292 0.0 9.7 0.00 0.00 0.00 33 1009.9
20260504230054 15 216 0.0 9.7 0.00 0.00 0.00 35 1009.9
20260504225556 16 324 1.6 12.9 0.00 0.00 0.00 33 1010.0
20260504225056 16 297 1.6 12.9 0.00 0.00 0.00 32 1010.2
20260504224553 16 353 3.2 12.9 0.00 0.00 0.00 34 1010.1
20260504224050 16 7 1.6 16.1 0.00 0.00 0.00 33 1009.9
20260504223554 16 360 0.0 16.1 0.00 0.00 0.00 30 1009.9
20260504223053 16 30 9.7 16.1 0.00 0.00 0.00 31 1010.1
20260504222551 16 13 3.2 12.9 0.00 0.00 0.00 31 1009.8
20260504222051 17 12 4.8 11.3 0.00 0.00 0.00 29 1009.7
20260504221631 18 9 3.2 12.9 0.00 0.00 0.00 28 1009.8
20260504221051 18 37 3.2 12.9 0.00 0.00 0.00 28 1009.7
20260504220551 18 260 3.2 12.9 0.00 0.00 0.00 28 1009.7
20260504220055 19 301 3.2 12.9 0.00 0.00 0.00 25 1009.7
20260504215552 19 282 3.2 12.9 0.00 0.00 0.00 27 1009.7
20260504215051 19 253 3.2 11.3 0.00 0.00 0.00 27 1009.9
20260504214555 20 12 4.8 11.3 0.00 0.00 0.00 27 1010.1
20260504214052 19 3 3.2 11.3 0.00 0.00 0.00 28 1009.9
20260504213551 19 224 3.2 8.0 0.00 0.00 0.00 29 1010.0
20260504213100 19 305 3.2 11.3 0.00 0.00 0.00 23 1010.1
20260504212551 19 302 3.2 17.7 0.00 0.00 0.00 28 1010.2
20260504212050 19 287 1.6 17.7 0.00 0.00 0.00 31 1010.3
20260504211554 18 160 4.8 17.7 0.00 0.00 0.00 28 1010.3
20260504211054 18 214 3.2 11.3 0.00 0.00 0.00 26 1010.2
20260504210552 18 328 3.2 11.3 0.00 0.00 0.00 30 1010.2
20260504210056 17 0 3.2 12.9 0.00 0.00 0.00 34 1010.3
20260504205553 17 153 4.8 12.9 0.00 0.00 0.00 32 1010.5
20260504205054 17 210 1.6 9.7 0.00 0.00 0.00 31 1010.7
20260504204557 17 213 1.6 9.7 0.00 0.00 0.00 33 1010.8
20260504204052 17 305 1.6 9.7 0.00 0.00 0.00 34 1010.9
20260504203556 16 340 3.2 9.7 0.00 0.00 0.00 36 1011.0
20260504203053 16 94 1.6 9.7 0.00 0.00 0.00 36 1011.0
20260504202551 17 200 1.6 12.9 0.00 0.00 0.00 30 1011.0
20260504202051 17 95 3.2 17.7 0.00 0.00 0.00 34 1011.1
20260504201554 16 0 6.4 17.7 0.00 0.00 0.00 34 1011.1
20260504201053 15 54 1.6 11.3 0.00 0.00 0.00 41 1011.1
20260504200552 14 74 3.2 11.3 0.00 0.00 0.00 43 1011.1
20260504200057 13 0 3.2 17.7 0.00 0.00 0.00 40 1011.3
20260504195550 13 38 3.2 22.5 0.00 0.00 0.00 50 1011.5
20260504195050 14 334 9.7 22.5 0.00 0.00 0.00 39 1011.9
20260504194604 16 51 6.4 14.5 0.00 0.00 0.00 33 1011.4
20260504194051 17 348 3.2 16.1 0.00 0.00 0.00 31 1011.2
20260504193552 17 289 3.2 16.1 0.00 0.00 0.00 31 1010.9
20260504193058 20 353 3.2 25.7 0.00 0.00 0.00 27 1011.2
20260504192551 19 103 4.8 25.7 0.00 0.00 0.00 30 1010.8
20260504192054 18 209 4.8 16.1 0.00 0.00 0.00 29 1010.8
20260504191618 18 213 3.2 12.9 0.00 0.00 0.00 31 1010.8
20260504191051 19 221 3.2 11.3 0.00 0.00 0.00 26 1011.0
20260504190554 20 290 3.2 11.3 0.00 0.00 0.00 31 1011.0
20260504185555 18 261 1.6 6.4 0.00 0.00 0.00 31 1011.2
20260504185054 18 25 1.6 8.0 0.00 0.00 0.00 32 1011.2
20260504184606 17 246 1.6 8.0 0.00 0.00 0.00 33 1011.4
20260504184054 16 359 1.6 16.1 0.00 0.00 0.00 33 1011.4
20260504183552 17 277 3.2 16.1 0.00 0.00 0.00 30 1011.5
20260504183054 18 63 3.2 14.5 0.00 0.00 0.00 30 1011.6
20260504182557 18 0 4.8 14.5 0.00 0.00 0.00 29 1011.5
20260504182054 18 228 4.8 12.9 0.00 0.00 0.00 30 1011.5
20260504181604 18 186 3.2 9.7 0.00 0.00 0.00 29 1011.6
20260504181051 17 292 1.6 9.7 0.00 0.00 0.00 33 1011.8
20260504180554 16 155 1.6 4.8 0.00 0.00 0.00 34 1011.7
20260504180100 15 0 0.0 4.8 0.00 0.00 0.00 36 1011.7
20260504175554 15 0 0.0 8.0 0.00 0.00 0.00 34 1011.9
20260504175054 16 0 1.6 8.0 0.00 0.00 0.00 34 1011.8
20260504174556 16 248 1.6 8.0 0.00 0.00 0.00 34 1011.9
20260504174055 16 0 1.6 11.3 0.00 0.00 0.00 32 1011.9
20260504173556 16 143 4.8 11.3 0.00 0.00 0.00 33 1012.0
20260504173104 15 100 1.6 4.8 0.00 0.00 0.00 38 1012.0
20260504172551 15 293 1.6 4.8 0.00 0.00 0.00 35 1012.1
20260504172059 14 332 1.6 4.8 0.00 0.00 0.00 39 1012.1
20260504171604 14 278 0.0 6.4 0.00 0.00 0.00 38 1012.1
20260504171052 14 0 1.6 9.7 0.00 0.00 0.00 36 1012.1
20260504170554 14 130 0.0 11.3 0.00 0.00 0.00 40 1012.2
20260504151050 9 141 1.6 8.0 0.00 0.00 0.00 55 1013.0
20260504150553 10 106 3.2 8.0 0.00 0.00 0.00 57 1013.2
20260504141056 5 135 1.6 6.4 0.00 0.00 0.00 71 1013.5
20260504140552 3 118 1.6 6.4 0.00 0.00 0.00 76 1013.5
20260504140106 3 0 0.0 1.6 0.00 0.00 0.00 77 1013.6
20260504130553 -1 0 0.0 0.0 0.00 0.00 0.00 85 1013.5
20260504110551 0 0 0.0 1.6 0.00 0.00 0.00 82 1013.6
20260504100551 0 0 0.0 0.0 0.00 0.00 0.00 79 1013.4
20260504081556 1 0 0.0 0.0 0.00 0.00 0.00 75 1013.7
20260504081053 1 0 0.0 1.6 0.00 0.00 0.00 77 1013.8
20260504080552 1 0 0.0 1.6 0.00 0.00 0.00 78 1013.9
20260504060105 3 0 0.0 0.0 0.00 0.00 0.00 72 1014.0
20260504050550 5 0 0.0 0.0 0.00 0.00 0.00 66 1014.3
20260504045552 5 0 0.0 1.6 0.00 0.00 0.00 65 1014.3
20260504045052 5 0 0.0 1.6 0.00 0.00 0.00 66 1014.3
20260504044555 4 0 0.0 1.6 0.00 0.00 0.00 66 1014.4
20260504044053 4 0 0.0 0.0 0.00 0.00 0.00 67 1014.3
20260504043555 5 0 0.0 0.0 0.00 0.00 0.00 66 1014.4
20260504043058 5 0 0.0 0.0 0.00 0.00 0.00 66 1014.3
20260504042554 5 0 0.0 0.0 0.00 0.00 0.00 65 1014.3